Погода в Ризе

Германия     51°18′24″N   13°17′31″E
темп.,
°C
ветер,
м/с
пор.,
м/с
влажн.,
%
обл.,
%
осадки,
мм/ч
давл.,
гПа
погр.,
м
21 апреля, ср
ср2123:00+7зюз46928 0.6 101586
02:00+6зюз35933 0.6 101575
05:00+5зюз349446 0.0 101550
08:00+8з35905 0.0 1015189
11:00+12зсз457524 0.1 1015822
14:00+14сз56575 0.4 10141643
17:00+14зсз56525 0.0 10141733
20:00+9зсз4575100 0.1 101481
22 апреля, чт
чт2223:00+8сз5978100 0.0 1016633
02:00+3зсз5969100 0.0 1019512
05:00+1з511835 0.0 1019362
08:00+3з7127369 0.0 1020855
11:00+6зсз7116495 0.1 10201667
14:00+10зсз91150100 0.1 10202453
17:00+9зсз812617 0.3 10201752
20:00+6зсз7137677 0.9 1021574
23 апреля, пт
пт2323:00+3з512905 0.3 1023307
02:00+2з5118910 0.3 1024338
05:00+1з6129235 0.0 1024432
08:00+3зсз81282100 0.0 1024950
11:00+6зсз71072100 0.0 10251268
14:00+9зсз71059100 0.1 10251961
17:00+8сз8117598 0.4 10251215
20:00+6зсз6118079 0.8 1026401
24 апреля, сб
сб2423:00+2з479125 0.1 1027117
02:00+3зюз4783100 0.1 1027208
05:000з49945 0.0 1027188
08:00+3з588729 0.0 1027415
11:00+5зсз6877100 0.1 10271195
14:00+6зсз577151 0.1 1026968
17:00+9зсз686468 0.3 10251382
20:00+6сз367789 0.6 1026111
25 апреля, вс
вс2523:00+1св11855 0.0 102810
02:00−1всв018642 0.0 102910
05:00−2з118691 0.0 102910
08:00+2сз12735 0.0 1029196
11:00+7ссз22490 0.0 10291075
14:00+9ссв22440 0.0 10271386
17:00+10ссв22475 0.0 10251336
20:00+5ссз1164100 0.0 102510